Walla Walla, WA
on Sunday, November 18, 2012

Sunday
Previous Day Next Day
Daily Summary
 ActualAverage (KPDT)Record (KPDT)
Temperature
Mean Temperature °F 40°F  
Max Temperature 55°F 48°F 75°F (1897)
Min Temperature 42°F 33°F 15°F (1916)
Degree Days
Heating Degree Days 16 25  
Month to date heating degree days 388  
Since 1 July heating degree days 930  
Cooling Degree Days 0 0  
Month to date cooling degree days 0  
Year to date cooling degree days 636  
Moisture
Dew Point 32°F   
Average Humidity 52    
Maximum Humidity 76    
Minimum Humidity 40    
Precipitation
Precipitation 0.01 in 0.05 in 1.03 in (1996)
Month to date precipitation 0.90  
Year to date precipitation 10.57  
Snow
Snow 0.00 in 0.10 in 3.30 in (1973)
Month to date snowfall 0.5  
Year to date snowfall 8.3  
Since 1 July snowfall 0.6  
Snow Depth in   
Wind
Wind Speed 13 mph   
Max Wind Speed 34 mph   
Max Gust Speed 56 mph   
Visibility 10 miles   
Events Rain   

Key: T is trace of precipitation, MM is missing value
Source: NWS Daily Summary
Time(PST)TemperatureDew PointHumidity Pressure Visibility Wind DirectionWind SpeedGust SpeedPrecipitationEvents Conditions
12:53 AM 43.0°F 36.0°F 76% 29.84 in 10.0 miles South 12.7 mph - N/A   Clear
1:53 AM 42.1°F 34.0°F 73% 29.86 in 10.0 miles South 8.1 mph - N/A   Partly Cloudy
2:53 AM 44.1°F 33.1°F 65% 29.87 in 10.0 miles SSE 13.8 mph - N/A   Clear
3:53 AM 44.1°F 30.9°F 60% 29.89 in 10.0 miles SSE 9.2 mph - N/A   Partly Cloudy
4:53 AM 44.1°F 30.9°F 60% 29.92 in 10.0 miles SSE 4.6 mph - N/A   Scattered Clouds
5:53 AM 43.0°F 30.9°F 62% 29.92 in 10.0 miles South 6.9 mph - N/A   Mostly Cloudy
6:53 AM 46.0°F 30.9°F 56% 29.92 in 10.0 miles SSE 11.5 mph - N/A   Clear
7:53 AM 46.0°F 30.9°F 56% 29.93 in 10.0 miles SSE 11.5 mph - N/A   Scattered Clouds
8:53 AM 48.9°F 30.0°F 48% 29.92 in 10.0 miles South 12.7 mph - N/A   Clear
9:53 AM 50.0°F 30.9°F 48% 29.93 in 10.0 miles SSE 12.7 mph - N/A   Overcast
10:53 AM 52.0°F 30.0°F 43% 29.93 in 10.0 miles SSE 16.1 mph - N/A   Overcast
11:53 AM 55.0°F 32.0°F 42% 29.90 in 10.0 miles South 13.8 mph - N/A   Mostly Cloudy
12:53 PM 55.0°F 30.9°F 40% 29.88 in 10.0 miles SSE 17.3 mph - N/A   Mostly Cloudy
1:53 PM 55.9°F 32.0°F 40% 29.87 in 10.0 miles South 16.1 mph - N/A   Clear
2:53 PM 54.0°F 32.0°F 43% 29.86 in 10.0 miles South 11.5 mph - N/A   Mostly Cloudy
3:53 PM 53.1°F 30.0°F 41% 29.87 in 10.0 miles SSE 17.3 mph - N/A   Scattered Clouds
4:53 PM 53.1°F 30.0°F 41% 29.87 in 10.0 miles SSE 15.0 mph - N/A   Partly Cloudy
5:53 PM 53.1°F 30.0°F 41% 29.85 in 10.0 miles SSE 15.0 mph 26.5 mph N/A   Clear
6:53 PM 52.0°F 28.9°F 41% 29.85 in 10.0 miles SSE 18.4 mph 28.8 mph N/A   Clear
7:53 PM 52.0°F 28.9°F 41% 29.83 in 10.0 miles SSE 17.3 mph 24.2 mph N/A   Scattered Clouds
8:53 PM 53.1°F 33.1°F 47% 29.85 in 10.0 miles South 34.5 mph 56.4 mph 0.00 in Rain Light Rain
9:53 PM 48.9°F 37.9°F 66% 29.86 in 10.0 miles South 16.1 mph 24.2 mph 0.01 in   Overcast
10:53 PM 51.1°F 37.0°F 59% 29.83 in 10.0 miles SSE 23.0 mph 31.1 mph N/A   Overcast
11:53 PM 53.1°F 36.0°F 52% 29.80 in 10.0 miles SSE 28.8 mph 35.7 mph N/A   Overcast
Moon Phase
Nov. 18 Nov. 20 Nov. 28 Dec. 06 Dec. 13
Sunrise:06:58 AM (PST) Moon Rise:11:25 AM (PST)11/18
Sunset:04:17 PM (PST) Moon Set:09:47 PM (PST)11/18

Copyright © 2014 The Weather Underground, Inc.